DM5RC Weather Reports


time (UTC)temp
C
wind
direction
speed
KPH
gust
KPH
rain 1hr
cm
rain 24hr
cm
rain mn
cm
humidity
%
barometer
mb
20260504214326 16 308 0.0 0.0 0.00 0.00 0.00 77 1010.9
20260504213828 16 308 0.0 0.0 0.00 0.00 0.00 76 1011.0
20260504213330 16 308 0.0 0.0 0.00 0.00 0.00 77 1010.9
20260504212813 16 308 0.0 0.0 0.00 0.00 0.00 77 1010.9
20260504212316 16 308 0.0 1.6 0.00 0.00 0.00 76 1011.0
20260504211818 16 308 0.0 1.6 0.00 0.00 0.00 75 1010.9
20260504211322 16 308 0.0 0.0 0.00 0.00 0.00 76 1011.0
20260504210824 16 308 0.0 0.0 0.00 0.00 0.00 75 1011.0
20260504210328 16 308 0.0 0.0 0.00 0.00 0.00 75 1011.0
20260504205828 16 307 0.0 0.0 0.00 0.00 0.00 74 1011.0
20260504205329 16 308 0.0 0.0 0.00 0.00 0.00 74 1011.0
20260504204829 16 308 0.0 0.0 0.00 0.00 0.00 74 1011.0
20260504204330 16 308 0.0 0.0 0.00 0.00 0.00 74 1011.0
20260504203812 16 308 0.0 0.0 0.00 0.00 0.00 73 1011.0
20260504203315 16 308 0.0 0.0 0.00 0.00 0.00 73 1011.0
20260504202816 17 308 0.0 0.0 0.00 0.00 0.00 73 1011.0
20260504202320 17 308 0.0 0.0 0.00 0.00 0.00 72 1010.9
20260504201821 17 307 0.0 1.6 0.00 0.00 0.00 71 1010.9
20260504201324 17 308 0.0 3.2 0.00 0.00 0.00 70 1010.9
20260504200825 17 308 0.0 3.2 0.00 0.00 0.00 68 1010.9
20260504200326 17 295 0.0 1.6 0.00 0.00 0.00 68 1010.8
20260504195828 17 295 0.0 1.6 0.00 0.00 0.00 68 1010.9
20260504195330 18 295 0.0 1.6 0.00 0.00 0.00 67 1010.9
20260504194814 18 295 0.0 1.6 0.00 0.00 0.00 67 1011.0
20260504194318 18 295 0.0 1.6 0.00 0.00 0.00 67 1011.0
20260504193828 18 295 0.0 1.6 0.00 0.00 0.00 67 1011.0
20260504193331 18 295 0.0 1.6 0.00 0.00 0.00 67 1011.1
20260504192815 18 295 0.0 0.0 0.00 0.00 0.00 67 1011.0
20260504192319 18 295 0.0 0.0 0.00 0.00 0.00 66 1011.0
20260504191823 18 295 0.0 0.0 0.00 0.00 0.00 66 1011.0
20260504191327 18 295 0.0 0.0 0.00 0.00 0.00 65 1011.0
20260504190831 18 295 0.0 0.0 0.00 0.00 0.00 64 1010.9
20260504190316 19 295 0.0 0.0 0.00 0.00 0.00 64 1010.9
20260504185820 19 295 0.0 0.0 0.00 0.00 0.00 63 1010.8
20260504185321 19 295 0.0 0.0 0.00 0.00 0.00 62 1010.8
20260504184821 20 295 0.0 0.0 0.00 0.00 0.00 61 1010.8
20260504184321 20 295 0.0 0.0 0.00 0.00 0.00 61 1010.8
20260504183822 20 295 0.0 1.6 0.00 0.00 0.00 60 1010.8
20260504183323 20 295 0.0 1.6 0.00 0.00 0.00 60 1010.7
20260504182813 20 295 0.0 1.6 0.00 0.00 0.00 59 1010.7
20260504182313 21 295 0.0 1.6 0.00 0.00 0.00 58 1010.7
20260504181815 21 295 0.0 3.2 0.00 0.00 0.00 58 1010.6
20260504181315 21 295 0.0 3.2 0.00 0.00 0.00 57 1010.7
20260504180819 21 296 1.6 4.8 0.00 0.00 0.00 57 1010.7
20260504180320 21 326 1.6 4.8 0.00 0.00 0.00 56 1010.6
20260504175823 21 324 1.6 6.4 0.00 0.00 0.00 55 1010.6
20260504175326 22 335 1.6 6.4 0.00 0.00 0.00 55 1010.6
20260504174849 22 308 1.6 6.4 0.00 0.00 0.00 54 1010.6
20260504174331 22 305 1.6 6.4 0.00 0.00 0.00 54 1010.5
20260504173848 22 278 0.0 6.4 0.00 0.00 0.00 53 1010.5
20260504173326 22 315 3.2 6.4 0.00 0.00 0.00 52 1010.5
20260504172812 23 295 1.6 6.4 0.00 0.00 0.00 51 1010.5
20260504171817 23 326 1.6 4.8 0.00 0.00 0.00 50 1010.4
20260504171314 23 334 1.6 8.0 0.00 0.00 0.00 49 1010.4
20260504170816 23 314 3.2 11.3 0.00 0.00 0.00 49 1010.5
20260504170319 23 280 4.8 11.3 0.00 0.00 0.00 50 1010.5
20260504160328 23 291 4.8 12.9 0.00 0.00 0.00 47 1010.5
20260504150828 23 248 9.7 24.1 0.00 0.00 0.00 43 1010.6
20260504150329 24 279 8.0 25.7 0.00 0.00 0.00 43 1010.7
20260504141313 25 205 6.4 24.1 0.00 0.00 0.00 42 1010.8
20260504140816 25 252 9.7 24.1 0.00 0.00 0.00 42 1010.9
20260504140319 25 263 8.0 20.9 0.00 0.00 0.00 45 1010.9
20260504130820 25 250 4.8 12.9 0.00 0.00 0.00 46 1011.2
20260504130323 25 250 1.6 14.5 0.00 0.00 0.00 47 1011.2
20260504110327 23 204 3.2 17.7 0.00 0.00 0.00 52 1012.1
20260504100322 21 274 6.4 14.5 0.00 0.00 0.00 54 1012.7
20260504081818 20 338 6.4 19.3 0.00 0.00 0.00 56 1013.0
20260504081319 20 275 9.7 19.3 0.00 0.00 0.00 56 1012.9
20260504080821 20 281 9.7 17.7 0.00 0.00 0.00 55 1012.8
20260504080324 20 224 8.0 17.7 0.00 0.00 0.00 55 1012.8
20260504070327 19 288 3.2 8.0 0.00 0.00 0.00 58 1012.5
20260504050324 16 250 1.6 4.8 0.00 0.00 0.00 64 1011.7
20260504045847 16 223 1.6 6.4 0.00 0.00 0.00 64 1011.7
20260504045329 16 231 1.6 6.4 0.00 0.00 0.00 65 1011.7
20260504044913 16 246 3.2 6.4 0.00 0.00 0.00 65 1011.7
20260504044312 15 254 3.2 4.8 0.00 0.00 0.00 67 1011.7
20260504043835 15 267 1.6 1.6 0.00 0.00 0.00 67 1011.5
20260504043405 15 268 0.0 1.6 0.00 0.00 0.00 67 1011.4
20260504042844 15 268 0.0 1.6 0.00 0.00 0.00 67 1011.4
20260504042326 15 268 0.0 1.6 0.00 0.00 0.00 67 1011.4
20260504041828 15 268 0.0 1.6 0.00 0.00 0.00 66 1011.4
20260504041329 15 268 0.0 1.6 0.00 0.00 0.00 66 1011.4
20260504040812 15 268 0.0 1.6 0.00 0.00 0.00 66 1011.3
20260504040313 15 268 1.6 1.6 0.00 0.00 0.00 65 1011.3
20260504035814 15 268 0.0 1.6 0.00 0.00 0.00 65 1011.4
20260504035334 15 268 0.0 1.6 0.00 0.00 0.00 65 1011.4
20260504034814 15 267 0.0 1.6 0.00 0.00 0.00 65 1011.4
20260504034318 15 267 1.6 1.6 0.00 0.00 0.00 64 1011.4
20260504033821 16 268 0.0 0.0 0.00 0.00 0.00 64 1011.3
20260504033325 16 267 0.0 0.0 0.00 0.00 0.00 63 1011.3
20260504032823 15 268 0.0 1.6 0.00 0.00 0.00 64 1011.4
20260504032348 16 267 0.0 1.6 0.00 0.00 0.00 64 1011.5
20260504031813 16 267 1.6 1.6 0.00 0.00 0.00 63 1011.6
20260504031316 16 268 0.0 1.6 0.00 0.00 0.00 62 1011.6
20260504030838 16 267 0.0 3.2 0.00 0.00 0.00 61 1011.6
20260504030316 16 267 0.0 3.2 0.00 0.00 0.00 60 1011.6
20260504025324 16 268 0.0 3.2 0.00 0.00 0.00 60 1011.6
20260504024825 16 267 1.6 3.2 0.00 0.00 0.00 60 1011.7
20260504024325 16 279 1.6 3.2 0.00 0.00 0.00 60 1011.6
20260504023825 16 265 1.6 3.2 0.00 0.00 0.00 60 1011.7
20260504023326 16 265 1.6 4.8 0.00 0.00 0.00 61 1011.7
20260504022827 16 260 3.2 4.8 0.00 0.00 0.00 61 1011.6
20260504022330 16 267 3.2 6.4 0.00 0.00 0.00 61 1011.5
20260504021831 16 269 4.8 6.4 0.00 0.00 0.00 61 1011.5
20260504021312 16 267 4.8 6.4 0.00 0.00 0.00 61 1011.4
20260504020814 16 274 3.2 6.4 0.00 0.00 0.00 62 1011.4
20260504020316 16 264 3.2 4.8 0.00 0.00 0.00 63 1011.3
20260504015820 15 269 1.6 4.8 0.00 0.00 0.00 63 1011.2
20260504015321 15 264 3.2 3.2 0.00 0.00 0.00 64 1011.1
20260504014841 15 260 1.6 3.2 0.00 0.00 0.00 65 1011.1
20260504014322 15 264 0.0 1.6 0.00 0.00 0.00 64 1011.0
20260504013825 15 265 0.0 1.6 0.00 0.00 0.00 64 1011.0
20260504013326 15 266 0.0 3.2 0.00 0.00 0.00 63 1011.0
20260504012916 15 266 1.6 3.2 0.00 0.00 0.00 63 1010.9
20260504012312 15 265 1.6 3.2 0.00 0.00 0.00 63 1010.9
20260504011813 15 266 1.6 1.6 0.00 0.00 0.00 63 1010.8
20260504011317 16 266 1.6 1.6 0.00 0.00 0.00 63 1010.8
20260504010821 16 266 0.0 3.2 0.00 0.00 0.00 62 1010.7
20260504010325 16 266 3.2 3.2 0.00 0.00 0.00 62 1010.7
20260504005823 16 254 1.6 4.8 0.00 0.00 0.00 62 1010.6
20260504005326 15 266 3.2 4.8 0.00 0.00 0.00 62 1010.6
20260504004813 15 264 3.2 4.8 0.00 0.00 0.00 63 1010.6
20260504004315 15 261 3.2 3.2 0.00 0.00 0.00 63 1010.5
20260504003816 15 257 1.6 3.2 0.00 0.00 0.00 63 1010.4
20260504003333 15 257 0.0 1.6 0.00 0.00 0.00 61 1010.4
20260504002833 16 320 0.0 1.6 0.00 0.00 0.00 61 1010.4
20260504002353 16 320 0.0 1.6 0.00 0.00 0.00 60 1010.4
20260504001814 16 320 0.0 0.0 0.00 0.00 0.00 60 1010.4
20260504001315 16 320 0.0 1.6 0.00 0.00 0.00 59 1010.4
20260504000838 16 320 0.0 1.6 0.00 0.00 0.00 59 1010.5
20260504000340 16 320 0.0 1.6 0.00 0.00 0.00 57 1010.4
20260503235821 16 320 0.0 3.2 0.00 0.00 0.00 57 1010.4
20260503235323 16 320 1.6 3.2 0.00 0.00 0.00 57 1010.4
20260503234825 17 320 0.0 1.6 0.00 0.00 0.00 57 1010.5
20260503234345 17 320 0.0 1.6 0.00 0.00 0.00 56 1010.4
20260503233842 17 320 0.0 1.6 0.00 0.00 0.00 55 1010.5
20260503233342 17 320 0.0 1.6 0.00 0.00 0.00 55 1010.5
20260503232821 17 320 0.0 1.6 0.00 0.00 0.00 53 1010.6
20260503232323 18 328 0.0 3.2 0.00 0.00 0.00 53 1010.6
20260503231824 18 328 0.0 3.2 0.00 0.00 0.00 53 1010.6
20260503231322 18 266 1.6 3.2 0.00 0.00 0.00 52 1010.6
20260503230824 18 264 0.0 3.2 0.00 0.00 0.00 51 1010.6
20260503230326 19 257 0.0 3.2 0.00 0.00 0.00 50 1010.5
20260503225829 19 269 0.0 1.6 0.00 0.00 0.00 49 1010.4
20260503225331 19 269 0.0 6.4 0.00 0.00 0.00 49 1010.3
20260503224813 19 272 0.0 8.0 0.00 0.00 0.00 49 1010.4
20260503224316 19 255 1.6 6.4 0.00 0.00 0.00 49 1010.3
20260503223819 19 272 1.6 6.4 0.00 0.00 0.00 49 1010.2
20260503223322 19 231 1.6 8.0 0.00 0.00 0.00 49 1010.2
20260503222907 19 245 3.2 8.0 0.00 0.00 0.00 49 1010.1
20260503222325 19 224 4.8 8.0 0.00 0.00 0.00 49 1010.1
20260503221847 19 232 1.6 8.0 0.00 0.00 0.00 49 1010.0
20260503221320 19 210 1.6 8.0 0.00 0.00 0.00 48 1009.9
20260503220843 19 233 1.6 6.4 0.00 0.00 0.00 48 1009.9
20260503220324 19 202 3.2 8.0 0.00 0.00 0.00 47 1009.9
20260503215824 19 202 1.6 8.0 0.00 0.00 0.00 47 1009.9
20260503215324 19 210 3.2 6.4 0.00 0.00 0.00 47 1009.9
20260503214824 19 209 1.6 4.8 0.00 0.00 0.00 46 1009.9